Wind_Speed
14 13 13 10 8 7 7 5 2 3 2 6 6 6 8 8 10 9 10 8 7 6 5 8 7 5 3 7 10 10 10 9 5 4 6 8 11 13 12 13 14 15 16 17 16 14 14 16 16 18 19 18 20 21 21 20 20 22 20 19 19 19 18 17 16 16 15 14 14 14 14 13 13 13 13 13 13 13 13 13 12 11 11 10 10 10 11 11 11 11 11 11 11 11 11 11 11
13 12 11 9 7 5 2 3 2 3 4 6 6 7 9 7 8 9 9 7 7 7 7 8 7 7 7 9 7 7 11 11 9 9 10 14 16 14 13 14 14 15 15 17 18 17 16 17 18 19 19 19 20 21 21 21 20 21 19 18 18 18 18 16 16 16 15 14 14 14 14 13 13 13 13 12 13 13 13 12 11 11 10 10 9 10 11 11 11 11 11 11 11 11 11 11 11
13 10 10 8 7 6 3 3 1 4 5 6 7 6 7 7 8 9 9 9 10 9 8 8 7 6 4 8 7 7 8 9 13 12 10 15 15 13 15 15 15 15 14 16 18 18 17 18 20 21 20 20 21 20 21 20 19 19 17 16 17 18 18 16 16 16 16 16 15 14 13 12 12 12 12 12 12 12 12 11 10 10 10 9 9 10 10 10 10 10 10 10 10 10 10 10 10
11 9 8 5 5 5 3 1 1 4 6 6 6 6 5 7 10 10 9 9 9 8 7 7 7 5 3 8 7 8 11 8 11 11 9 12 14 16 17 16 16 15 14 14 15 17 18 19 21 23 22 22 21 20 19 18 18 18 17 17 17 17 17 17 16 17 16 16 14 13 12 12 12 12 12 11 11 11 11 10 10 9 9 9 9 9 9 9 9 9 9 9 9 9 9 9 9
9 7 7 5 3 1 2 1 3 4 6 5 6 5 6 8 10 10 9 9 7 6 6 5 6 6 8 9 3 6 9 7 10 11 11 13 16 18 18 17 17 16 15 15 15 15 17 19 19 21 22 21 20 19 18 18 18 19 18 18 18 17 17 17 17 17 16 15 13 12 12 12 12 11 11 11 10 10 10 9 9 9 8 8 8 8 8 8 8 8 8 8 8 8 9 8 8
8 6 7 7 3 2 2 2 5 7 7 5 7 6 6 8 10 11 10 8 6 6 5 4 7 9 9 9 7 8 7 8 9 11 13 16 16 18 18 17 17 17 17 17 16 16 18 18 17 18 19 20 20 19 18 19 19 19 19 19 19 18 17 17 16 16 15 14 13 12 12 12 12 11 10 10 9 9 9 8 8 8 8 7 6 7 7 7 7 7 7 7 7 8 9 8 8
6 5 5 5 3 2 0 5 6 7 6 6 7 7 7 8 9 11 10 9 6 6 4 5 9 9 8 7 8 8 7 9 10 12 15 17 17 17 16 16 17 18 18 18 17 18 20 20 19 19 19 20 20 20 19 20 21 20 20 19 19 18 17 16 15 15 14 13 12 12 12 11 11 10 10 9 9 8 8 7 7 7 7 6 5 6 6 6 6 6 7 7 7 7 7 6 7
5 4 2 3 2 2 2 7 6 6 6 5 7 7 8 9 8 9 10 8 7 6 5 8 9 7 8 7 7 8 9 11 12 15 16 17 17 16 15 16 17 18 17 18 18 19 21 20 20 20 20 20 21 21 20 21 22 20 19 18 18 18 17 16 15 14 13 13 12 12 11 11 10 9 9 8 8 7 7 7 6 6 6 5 5 6 6 5 5 6 6 7 7 7 6 6 6
6 4 2 3 1 2 4 6 6 6 7 6 7 7 7 8 7 8 8 7 7 8 8 9 5 6 10 10 10 9 9 12 15 17 16 17 17 15 15 15 16 17 17 17 18 19 20 20 19 20 21 21 21 21 21 21 21 20 18 18 17 16 16 15 14 13 13 12 11 11 10 10 9 8 8 7 7 6 7 6 6 5 4 5 5 6 5 4 4 5 5 6 6 7 7 8 8
5 3 3 3 1 3 4 5 5 6 7 6 7 7 6 6 6 6 7 8 9 8 9 6 4 9 12 12 10 8 11 15 17 17 16 16 16 15 15 15 16 17 18 18 19 19 19 19 19 19 20 20 21 20 20 20 20 18 17 16 16 15 15 14 13 12 12 11 11 10 9 9 8 7 7 7 6 6 6 6 5 4 4 5 5 5 3 2 2 3 4 6 6 7 8 9 9
4 2 3 2 1 3 4 5 5 6 7 6 7 6 5 6 6 6 6 8 9 8 9 6 8 13 13 12 8 10 15 17 17 17 16 15 15 15 15 15 15 16 18 18 18 18 19 19 19 19 19 20 21 20 19 18 18 16 15 14 15 14 13 12 12 11 11 10 10 9 8 8 7 7 7 6 6 6 5 5 4 3 3 3 3 2 2 2 2 3 4 5 6 8 9 9 9
4 2 3 2 3 4 4 5 6 6 6 5 7 6 4 6 6 7 8 8 8 9 9 6 10 13 12 10 7 12 17 17 17 17 16 15 15 15 15 15 15 16 17 17 18 18 19 19 19 19 19 20 20 18 17 16 15 14 13 13 13 13 12 12 12 11 11 10 9 9 8 7 7 7 7 6 6 6 5 4 3 2 3 2 1 2 1 2 3 4 4 5 7 9 10 9 9
4 1 2 1 2 3 4 4 5 5 5 5 6 6 5 5 5 6 8 8 8 9 8 6 11 12 10 10 9 13 15 17 18 17 17 15 15 15 15 15 16 16 16 16 17 18 18 18 18 18 18 18 18 16 15 14 14 13 13 13 12 12 12 12 11 11 10 9 9 8 8 7 7 7 7 6 5 5 4 3 3 2 2 1 1 2 2 3 3 4 5 7 8 10 11 10 10
3 2 3 1 0 1 3 4 4 3 4 6 7 7 5 4 4 5 7 10 8 6 8 9 11 10 9 11 9 11 14 18 19 18 17 15 15 15 15 16 16 16 15 15 16 17 18 17 16 17 17 16 16 15 15 14 13 13 12 12 12 12 12 11 10 10 9 9 8 8 7 7 7 6 6 5 4 4 4 2 2 1 0 1 2 2 3 5 5 5 6 7 9 9 11 11 10
4 2 3 2 1 2 2 2 3 2 4 7 7 8 6 3 4 5 6 8 7 8 9 9 9 7 10 12 9 12 17 21 20 18 17 16 16 15 15 16 15 15 14 14 14 15 15 16 16 16 17 17 16 15 15 14 13 13 12 12 12 11 11 10 10 9 8 8 8 7 7 6 6 6 5 5 4 4 3 1 2 2 1 2 3 4 5 6 7 8 8 9 9 9 9 10 9
4 4 4 2 1 2 2 2 2 2 5 8 9 8 7 6 5 5 4 4 8 10 8 9 7 3 9 12 12 18 23 23 21 19 18 17 16 16 15 15 15 14 13 14 13 13 13 15 16 15 15 16 15 14 14 14 13 13 12 12 11 11 10 10 9 9 8 8 7 7 6 6 5 5 5 4 4 4 3 3 4 3 3 5 6 7 7 8 8 9 9 9 9 9 8 8 7
4 5 5 2 1 1 3 3 1 3 6 9 11 9 8 8 6 4 4 4 10 10 7 8 6 3 7 12 18 24 25 24 21 20 19 18 17 16 16 15 15 14 13 14 13 13 13 13 14 14 14 14 13 13 14 14 13 12 11 11 11 10 10 9 9 8 8 7 7 6 6 5 5 5 4 4 4 3 4 4 4 6 6 6 7 8 8 9 8 8 8 8 8 8 8 8 7
5 5 4 2 0 1 3 3 1 3 7 10 12 11 8 9 9 6 6 8 10 9 8 9 7 6 10 17 23 26 25 24 23 22 21 19 17 16 16 16 16 15 15 14 13 13 13 13 13 13 14 14 13 13 13 13 13 12 11 11 10 10 10 9 9 8 8 7 7 6 5 5 5 4 4 4 4 4 4 5 5 7 8 7 7 8 8 8 7 7 7 6 7 8 8 7 6
6 4 3 2 1 3 2 2 3 2 6 10 11 11 8 9 10 8 9 10 10 9 10 10 10 11 15 20 25 26 25 24 23 23 22 20 18 17 17 16 16 16 16 15 15 14 14 13 13 13 13 13 13 12 12 12 12 12 11 11 11 10 10 9 9 8 8 7 7 6 5 4 4 4 5 5 5 5 5 6 6 8 9 9 9 8 8 7 6 6 5 6 7 7 6 5 5
7 5 4 2 1 1 1 1 3 2 6 11 12 11 8 9 10 9 9 10 11 10 11 12 12 14 17 21 24 25 25 23 23 22 21 20 18 18 17 17 16 16 16 16 16 15 14 14 14 13 13 13 13 12 11 11 12 11 11 11 10 10 10 9 8 8 7 7 7 6 5 5 5 4 5 5 5 5 5 6 7 8 8 9 10 9 7 7 7 5 5 7 6 5 4 4 4
5 5 6 1 1 2 2 2 4 4 6 11 11 11 10 10 10 9 9 10 10 10 13 14 15 17 19 21 23 24 23 23 23 21 21 20 18 17 16 16 16 15 15 15 15 16 15 14 14 14 14 14 13 12 11 11 11 11 10 10 10 10 9 9 8 8 7 7 7 6 5 5 5 5 5 5 5 5 5 6 6 7 6 6 8 7 6 6 5 4 4 6 5 4 4 3 3
5 6 9 3 1 3 1 3 5 6 7 11 12 12 10 10 10 10 11 9 6 9 12 14 15 19 21 22 22 22 21 21 22 21 21 20 19 17 16 16 15 15 15 14 15 16 16 15 15 14 14 14 13 12 11 11 11 10 10 10 9 9 9 8 8 8 8 8 7 6 6 6 5 5 5 5 5 5 5 5 6 6 6 6 6 6 5 5 5 4 4 4 4 5 4 4 4
7 7 9 6 5 4 1 4 7 8 10 11 12 11 10 11 10 10 12 6 2 6 12 13 15 19 22 23 22 21 20 20 21 21 21 21 20 18 17 17 16 16 15 14 15 15 16 16 15 15 14 15 14 12 11 11 11 10 9 9 9 8 8 8 8 8 7 7 7 6 6 6 6 5 5 5 5 5 5 5 6 6 6 6 6 6 5 5 5 5 4 5 5 6 5 4 4
9 8 8 7 6 6 4 5 8 11 11 11 11 11 12 12 9 9 12 6 4 5 11 13 15 19 22 22 21 21 20 20 21 22 21 21 21 19 18 18 17 16 15 15 15 15 16 17 16 16 15 15 14 13 12 11 11 10 10 9 9 8 8 8 8 7 7 7 7 7 6 6 6 5 5 5 5 5 5 5 6 6 6 6 6 6 6 5 5 6 6 6 6 6 6 6 6
12 10 8 7 6 6 6 6 10 12 10 9 12 12 12 12 7 8 12 8 5 7 12 14 16 19 20 20 21 20 19 21 22 22 21 20 20 19 18 17 17 16 15 15 15 15 16 17 17 17 16 15 15 14 13 12 11 11 10 10 10 9 9 8 7 7 7 7 8 8 7 6 6 5 5 5 5 5 5 6 6 6 6 6 6 6 5 6 6 7 7 8 8 8 7 7 7
10 13 10 7 7 6 7 8 11 12 9 10 14 12 12 11 7 8 12 8 7 10 14 15 17 18 19 18 19 19 18 20 21 21 21 19 19 19 18 17 17 17 16 15 15 15 16 16 17 17 16 16 15 14 14 13 12 12 11 11 10 10 9 9 8 8 8 8 8 8 8 7 6 6 5 5 6 6 6 6 6 6 6 6 6 6 5 6 7 8 8 8 9 8 8 8 8
3 10 9 7 8 6 7 9 12 12 10 13 13 11 12 11 7 7 11 10 9 12 15 16 16 17 18 17 17 17 17 20 21 21 20 18 19 19 19 18 18 17 16 16 17 16 16 17 17 17 17 16 16 15 14 13 13 12 12 11 10 10 10 9 9 9 8 8 7 7 8 8 7 6 6 6 6 6 6 7 6 7 7 6 6 6 6 7 8 8 8 9 9 8 8 7 7
2 6 7 8 8 6 8 10 12 11 10 13 11 9 10 10 9 7 11 13 10 13 15 16 16 15 17 17 16 15 15 19 21 21 20 19 19 19 20 19 18 18 17 18 17 16 16 18 17 18 18 17 16 15 14 14 13 12 12 11 11 10 10 9 9 9 9 8 7 7 7 7 7 6 6 6 7 6 6 6 6 6 6 6 6 6 7 8 9 8 7 8 7 7 7 6 6
5 7 7 7 6 7 10 11 13 12 10 13 10 7 9 11 12 8 13 14 11 13 14 15 15 14 15 16 15 13 15 19 20 20 21 21 20 20 21 20 20 18 17 18 17 17 17 17 17 18 18 18 17 16 15 14 13 12 12 12 11 11 11 10 10 9 9 8 8 8 8 8 7 7 6 6 7 7 6 6 6 6 6 7 6 7 9 8 7 6 6 6 6 6 7 7 7
7 10 9 5 6 7 10 11 14 13 10 15 11 6 8 12 15 10 13 16 14 13 13 14 14 13 14 15 14 13 15 17 18 20 21 21 20 20 21 21 21 19 17 17 18 18 17 16 17 17 19 19 19 17 16 15 14 13 12 12 12 11 11 11 11 10 9 9 8 8 8 9 8 7 7 6 6 7 7 6 7 7 7 7 7 8 8 7 5 5 6 6 7 7 7 7 7
8 9 8 7 6 6 11 11 15 13 10 16 12 6 5 9 14 14 14 17 16 14 14 14 13 13 14 14 14 14 15 17 19 20 21 21 20 19 20 21 21 20 17 17 18 18 17 16 16 16 18 20 19 19 17 16 14 13 12 12 12 12 11 11 11 11 10 10 9 9 8 9 9 9 8 7 6 7 7 7 7 7 7 7 7 7 6 5 6 6 7 7 7 7 7 7 7
9 8 8 8 6 5 12 11 15 13 10 16 14 7 3 5 13 16 14 16 17 15 14 15 15 15 14 14 14 13 14 17 19 21 21 21 20 19 20 20 21 21 18 17 17 18 18 17 16 16 18 19 19 19 18 16 15 14 13 12 11 12 12 12 12 11 11 10 9 9 8 9 10 10 10 8 7 6 6 7 7 7 6 6 5 5 5 6 7 7 7 7 7 7 7 7 7
9 9 9 9 8 6 9 10 15 13 10 15 14 8 4 4 12 16 15 17 17 15 15 16 16 16 15 13 13 13 13 16 18 21 22 21 21 19 19 20 20 20 19 18 17 18 19 18 17 17 17 19 19 18 18 17 15 14 13 12 12 12 12 12 11 11 11 10 10 9 8 8 9 10 10 9 6 6 6 7 7 6 4 2 2 3 5 6 6 7 6 6 6 7 7 7 7
9 10 9 9 11 8 8 10 13 13 11 14 16 12 6 4 11 15 15 17 17 15 14 16 15 14 14 13 13 13 13 14 16 20 23 22 20 20 19 19 20 20 19 18 18 18 19 18 18 18 17 18 18 18 18 17 15 15 14 12 12 12 12 12 11 11 11 11 10 9 8 8 8 9 10 9 7 8 8 7 6 4 3 2 1 2 4 5 5 6 6 6 6 6 7 7 7
10 11 9 9 11 9 9 9 12 16 14 14 15 14 11 6 9 12 14 16 16 15 14 14 15 15 14 14 14 14 14 15 16 20 23 22 20 20 19 18 19 19 19 19 19 18 18 18 18 18 18 17 18 18 18 17 15 15 14 13 13 12 13 12 12 12 11 11 11 9 9 9 8 8 10 10 9 9 7 7 6 5 4 2 1 3 4 5 5 5 6 6 6 6 7 7 7
13 12 11 11 10 9 11 10 12 18 15 13 15 14 15 12 9 11 13 14 14 14 13 13 14 15 14 14 14 14 15 15 17 21 23 22 21 20 19 18 18 19 19 19 19 19 19 18 18 18 18 18 17 17 17 17 16 15 14 14 14 14 14 13 13 13 12 11 11 10 9 10 9 9 11 11 8 7 8 8 7 6 4 3 2 3 4 4 5 5 6 6 7 7 6 6 6
13 13 12 13 11 10 13 12 13 17 14 13 15 14 14 13 10 11 12 13 14 14 14 13 13 14 14 15 15 15 16 15 17 21 22 22 22 20 19 18 19 19 19 19 20 20 20 19 19 18 18 19 18 17 17 17 17 16 15 15 15 15 14 14 13 13 13 12 10 10 10 10 10 11 11 9 8 9 9 8 7 6 5 4 3 3 3 4 4 5 6 6 7 7 6 4 5
13 13 12 12 12 10 11 10 11 15 13 11 14 15 14 14 11 9 11 14 14 15 15 15 16 15 14 15 17 16 14 13 15 18 20 23 22 22 21 19 20 20 20 20 20 20 20 20 19 19 19 19 19 19 17 17 17 16 15 15 15 15 14 14 14 13 13 12 10 10 11 11 11 11 10 9 9 10 9 8 7 7 6 5 4 3 3 4 4 5 5 5 5 5 4 4 4
13 12 10 10 12 9 6 8 10 13 10 9 12 13 13 13 12 10 12 14 13 14 15 15 15 15 14 15 16 16 15 13 15 17 20 23 23 23 22 20 21 21 21 21 20 21 20 20 20 19 19 20 20 19 19 18 17 16 15 14 14 14 13 13 13 12 12 12 11 11 11 12 11 10 9 9 10 10 9 8 7 7 6 5 4 3 3 4 4 4 4 4 4 4 2 3 4
13 12 10 10 12 10 6 8 12 12 10 9 10 10 10 11 12 13 14 14 13 13 15 15 15 15 16 17 16 16 16 16 16 17 19 21 24 24 23 22 21 21 21 21 21 21 21 21 21 20 20 20 20 20 20 18 17 16 16 14 13 12 12 12 12 12 12 12 12 12 12 11 11 10 9 9 9 8 8 8 7 7 6 5 4 3 3 4 4 3 3 3 3 4 2 2 3
14 15 13 12 13 13 10 10 11 11 11 9 9 8 8 11 14 13 12 14 14 14 15 15 15 15 16 16 16 16 17 16 17 18 18 19 22 24 24 23 22 22 22 22 22 22 21 21 21 21 20 20 20 20 20 19 17 17 16 15 14 13 13 12 12 13 14 13 13 12 11 11 11 10 9 8 8 8 8 8 7 7 6 5 4 3 4 4 3 3 2 2 2 3 3 2 1
14 17 17 16 14 14 14 12 11 9 9 10 10 8 7 11 15 15 12 13 15 14 16 17 16 16 15 15 16 17 17 17 17 18 18 19 22 24 25 24 23 23 23 23 23 22 21 20 20 21 20 20 21 20 21 20 19 18 17 16 15 14 14 14 14 14 13 13 12 10 10 10 10 9 9 8 8 8 8 8 8 7 6 5 3 3 3 3 3 3 2 1 1 1 2 2 0
11 15 18 19 16 13 13 14 12 9 8 9 11 9 8 8 12 13 13 14 15 15 17 18 17 16 16 15 15 16 17 17 17 17 18 19 21 23 24 25 25 24 24 23 22 22 22 21 21 21 20 20 20 21 22 22 20 19 18 18 17 16 15 14 14 14 12 11 10 9 9 9 9 9 8 8 8 8 7 7 7 5 4 4 3 3 3 3 3 2 1 1 1 1 1 2 1
11 12 17 19 17 14 13 14 12 10 8 8 11 11 8 9 9 9 11 14 15 16 18 18 17 18 19 18 17 17 18 17 16 17 18 19 21 23 25 26 26 25 24 23 22 22 22 22 21 22 21 20 20 21 22 23 22 20 19 19 18 17 16 15 13 13 12 11 9 9 9 8 9 9 8 8 8 8 7 6 5 5 5 4 4 4 4 3 2 2 2 1 1 1 1 1 1
12 9 13 17 17 15 14 13 11 11 10 8 12 12 9 9 9 7 9 13 15 16 19 19 19 20 20 20 20 20 19 18 17 17 18 19 21 25 26 26 26 26 25 23 22 22 22 22 22 22 21 20 20 21 22 23 22 20 20 20 19 18 17 15 13 12 11 11 11 10 9 9 9 9 9 9 8 7 7 6 6 6 5 5 5 4 4 3 3 3 3 2 2 1 1 1 1
9 5 10 14 14 14 13 11 10 12 13 11 13 14 10 9 9 9 10 12 13 14 16 17 19 20 20 21 21 20 18 17 18 18 18 19 23 26 26 26 26 26 26 24 23 22 21 22 22 22 22 21 20 21 22 23 22 21 20 20 20 19 17 15 14 13 12 12 13 12 11 11 10 10 10 9 9 8 7 7 7 7 6 6 5 4 4 3 4 4 4 3 3 2 2 1 1
9 6 10 11 10 11 10 9 8 11 13 13 15 16 12 10 10 9 10 11 13 12 11 13 17 20 20 20 20 21 19 16 17 18 18 20 24 26 26 26 26 26 25 25 24 23 22 22 22 23 23 22 21 22 23 23 22 22 21 21 21 20 18 16 15 15 15 14 14 13 12 12 11 10 10 9 9 9 8 7 7 7 7 6 6 5 4 4 4 4 4 4 4 3 3 2 1
11 8 10 9 7 7 7 8 8 10 11 12 17 17 14 11 10 8 10 13 14 12 10 12 15 19 20 18 19 20 19 18 17 17 17 19 21 23 25 25 26 26 25 25 25 24 23 23 23 24 24 23 22 22 24 24 23 22 22 22 21 21 20 19 17 17 16 16 15 13 12 12 11 10 10 9 9 9 9 8 8 8 7 7 7 6 5 4 4 4 4 4 4 3 3 2 3
13 10 11 10 8 7 8 9 9 9 10 12 17 17 14 12 11 11 10 12 13 11 11 12 12 14 16 18 18 17 17 18 17 16 16 17 17 18 22 25 25 25 26 26 25 24 23 23 24 24 25 25 24 23 24 25 24 23 23 22 21 20 20 20 19 18 17 16 15 14 13 13 12 11 11 11 10 10 9 9 9 9 8 8 7 7 5 4 3 4 4 4 4 3 3 3 3
14 12 11 11 10 9 11 10 9 10 12 14 15 13 12 10 11 14 15 14 14 13 13 13 11 10 12 16 17 16 17 18 17 16 16 16 16 17 21 25 25 25 26 27 26 26 24 23 25 25 25 26 25 24 25 25 26 25 24 23 22 20 20 21 20 19 18 16 15 15 14 14 12 12 13 12 11 11 10 9 9 9 9 8 8 7 6 5 4 4 4 4 4 4 3 3 3
14 14 13 12 11 10 10 9 9 10 10 13 14 11 10 10 6 7 12 14 14 13 13 12 10 9 9 12 15 16 18 18 17 17 17 17 18 19 22 24 25 26 27 27 27 26 25 24 25 27 27 27 26 25 25 26 26 26 25 24 22 21 20 20 19 19 18 16 16 15 14 14 13 12 13 12 12 11 11 10 9 9 9 9 8 8 6 5 5 5 5 5 4 4 4 4 4
12 13 13 13 12 11 9 10 12 11 9 11 12 8 8 9 4 4 7 9 10 11 12 11 10 10 10 11 14 16 16 17 17 17 18 19 19 21 23 24 25 26 27 28 27 27 27 25 26 28 28 27 27 27 26 26 25 25 25 25 23 21 20 19 18 18 17 17 17 16 14 14 14 12 12 12 12 11 11 10 10 9 9 9 9 8 7 6 6 6 6 5 5 5 5 5 5
9 13 14 13 13 13 11 11 12 11 11 11 9 8 9 10 9 10 13 13 13 13 12 12 11 11 12 12 13 15 15 17 18 17 18 19 20 22 24 25 26 26 27 28 28 29 30 28 27 28 28 27 27 28 28 26 25 25 25 26 24 22 21 20 19 19 18 18 17 15 14 14 14 12 11 11 12 11 11 10 10 9 9 10 9 8 7 6 6 6 6 6 6 5 5 5 5
8 10 14 12 11 12 11 11 10 11 12 10 11 13 11 11 9 10 15 17 17 16 15 14 12 11 13 13 13 15 16 17 18 18 18 19 20 21 25 27 27 28 28 29 30 30 30 29 28 28 28 28 28 29 28 26 26 26 25 25 25 23 22 22 21 20 18 18 16 15 14 14 13 12 11 11 11 11 11 11 10 9 9 10 9 8 7 7 7 7 7 7 7 6 6 6 6
15 9 11 12 10 9 10 10 10 12 11 10 14 16 12 11 10 9 12 14 15 16 15 14 11 11 13 13 14 16 16 16 17 17 17 17 18 20 25 27 27 28 28 29 31 30 29 28 28 29 30 31 30 27 26 25 25 25 24 24 25 25 24 22 21 19 18 17 16 14 14 14 13 12 12 11 10 11 11 11 11 10 9 9 9 8 8 8 8 8 8 8 8 7 7 7 6
18 12 10 11 11 10 10 9 9 10 11 10 14 15 10 10 11 12 12 11 11 11 11 10 9 9 12 12 12 14 15 15 15 16 17 18 19 21 26 28 28 28 28 29 30 29 28 28 28 29 29 29 29 27 26 26 26 25 24 23 25 26 25 22 19 18 18 18 17 15 15 14 13 13 13 12 12 12 12 12 11 10 9 9 9 8 8 9 9 9 8 8 7 7 8 7 6
15 12 11 11 10 9 11 11 10 11 12 11 12 13 10 8 10 14 15 12 10 10 10 11 10 11 12 11 11 12 14 15 15 16 17 18 18 20 25 27 27 27 27 28 28 28 29 29 28 29 28 28 28 28 27 27 27 27 25 26 27 26 24 21 18 18 19 18 18 18 17 16 16 16 16 14 13 13 13 12 10 10 9 8 8 9 9 10 10 10 9 8 8 8 8 8 7
14 12 13 13 10 10 11 12 11 12 12 12 12 12 10 7 8 11 15 14 14 14 13 12 13 15 12 8 10 11 13 14 15 15 16 16 16 18 22 24 25 26 26 27 27 26 28 28 27 28 28 28 29 29 28 27 27 27 27 28 27 24 22 20 19 20 21 20 20 21 21 20 19 19 18 17 15 15 14 13 12 11 11 10 10 11 10 11 11 11 10 10 9 9 9 9 9
Wind_Direction
152 159 162 172 181 196 197 218 238 172 180 80 88 101 88 92 113 117 116 125 111 90 85 91 85 52 47 85 94 85 44 20 27 59 92 105 117 115 118 120 127 131 127 133 140 141 144 147 149 147 141 142 143 140 136 136 136 134 137 142 143 141 138 135 137 139 138 135 130 128 126 127 123 115 107 102 99 95 92 88 86 86 85 81 76 72 67 63 59 57 54 50 48 45 45 45 44
159 164 170 186 190 218 223 198 239 110 108 84 80 84 104 122 124 111 107 102 87 98 104 93 86 70 80 96 97 87 53 43 70 80 95 115 120 119 123 123 126 128 126 132 139 141 142 143 148 151 149 146 145 142 139 140 139 136 138 145 145 140 135 134 138 139 139 136 132 131 130 128 123 115 109 105 101 96 92 88 88 89 85 81 75 68 63 59 56 54 51 47 44 40 40 39 39
165 166 173 195 209 228 263 222 256 78 89 84 85 91 119 127 111 99 93 88 93 114 115 107 97 68 110 114 61 60 79 73 90 95 111 125 123 123 126 125 125 124 127 134 138 140 140 141 143 151 155 148 144 145 144 142 138 136 141 147 144 138 135 138 140 139 139 136 133 133 132 129 123 118 113 109 102 96 91 91 93 91 86 82 75 67 62 57 54 52 50 46 42 39 37 36 35
169 174 183 206 228 224 257 234 30 64 86 84 93 103 118 109 104 97 94 98 109 125 121 116 91 36 53 92 64 79 97 91 99 103 115 123 119 124 129 127 127 125 128 132 134 138 139 139 140 145 150 148 146 146 144 142 140 142 145 145 143 140 139 141 140 139 138 135 134 134 133 130 126 122 116 109 102 95 92 97 98 93 88 83 74 66 63 60 55 51 50 46 41 37 37 37 35
173 190 207 240 266 277 296 51 49 57 66 70 98 105 108 104 109 108 106 112 123 124 122 123 99 80 68 60 51 100 104 108 108 103 108 114 116 126 128 128 128 127 129 128 131 137 136 136 137 139 142 144 147 145 144 146 147 148 146 144 143 142 141 140 139 137 135 134 136 138 136 133 130 124 115 107 101 96 97 102 100 95 89 82 74 68 64 62 58 53 50 46 41 33 34 31 28
181 198 214 247 281 339 291 85 66 72 49 34 95 105 110 113 119 120 119 118 119 114 114 112 109 115 88 58 59 82 105 121 116 109 114 118 122 127 128 129 127 125 127 128 132 137 140 140 139 139 140 143 147 148 148 151 152 150 147 145 143 141 140 139 137 135 135 137 140 141 138 135 131 123 115 109 103 100 101 103 100 97 89 82 73 72 67 60 57 53 49 43 38 31 33 28 20
198 210 207 240 237 234 292 76 62 78 53 18 81 104 112 119 129 131 133 128 127 124 112 105 116 116 101 98 82 73 97 115 123 121 120 123 127 129 128 129 126 124 125 127 131 138 143 143 143 145 147 147 150 150 149 151 152 150 146 144 141 139 137 136 136 136 138 141 145 143 139 136 131 124 118 112 107 105 106 106 103 101 97 90 76 69 64 58 50 44 43 34 30 28 28 23 13
222 241 240 264 228 189 57 73 61 66 74 51 71 91 106 123 139 145 143 139 139 134 128 131 132 109 107 126 99 92 106 111 123 122 123 127 129 130 129 128 125 123 124 127 131 138 141 141 144 145 145 145 147 148 146 147 148 146 144 141 138 135 134 136 137 139 142 146 148 146 142 138 133 126 121 117 116 115 116 115 112 111 106 96 80 68 60 54 44 34 35 25 20 15 9 8 3
222 239 258 266 270 96 74 76 77 68 82 89 82 88 107 131 150 154 147 134 136 138 135 143 148 113 116 116 103 113 114 114 125 126 129 130 130 131 129 129 125 125 127 129 131 135 138 139 141 139 140 143 145 146 146 145 144 143 140 136 134 133 136 138 139 142 146 149 151 149 147 141 135 131 127 127 125 125 124 123 123 120 106 89 76 66 56 48 44 27 20 14 8 358 356 359 358
214 226 271 265 313 71 89 79 86 81 81 90 93 107 122 137 154 159 153 133 135 135 128 135 132 122 122 114 110 121 124 129 132 131 133 131 132 131 129 128 126 127 128 130 131 133 137 140 140 138 140 144 144 144 144 144 143 141 136 133 133 136 140 141 144 147 151 152 153 150 147 143 140 138 136 135 133 133 131 130 128 118 97 83 75 67 52 35 40 19 5 3 356 348 353 356 354
226 185 263 279 70 55 73 82 93 93 95 99 101 116 127 137 152 155 151 136 138 133 131 147 130 126 125 116 108 116 130 139 137 136 137 135 134 132 130 128 127 127 127 130 132 133 135 140 141 141 143 144 142 142 143 143 141 137 135 138 139 141 143 146 151 154 157 156 155 152 148 148 146 146 144 141 140 140 140 136 131 117 95 83 76 59 27 2 3 353 349 350 346 342 349 353 352
256 172 235 288 71 64 67 83 95 99 111 116 117 127 134 142 150 149 150 143 145 142 144 158 135 135 131 119 117 128 141 146 141 140 140 139 137 134 132 130 130 128 128 131 132 135 136 137 141 143 143 141 141 142 142 141 138 136 139 143 143 146 149 152 157 158 158 156 154 152 150 150 148 149 148 145 145 146 149 143 136 111 87 77 49 18 349 352 344 323 329 336 339 339 344 350 350
257 249 255 311 42 75 85 87 94 109 125 116 122 132 142 152 154 148 150 149 152 149 143 141 142 146 128 117 130 141 150 149 145 145 144 143 140 137 135 133 132 129 131 133 133 139 139 138 142 144 142 140 141 142 142 142 141 142 145 146 146 149 151 153 155 155 154 152 152 151 151 150 149 152 149 149 150 151 161 157 144 115 91 79 338 353 333 321 313 307 321 330 336 339 340 343 346
249 294 290 301 359 111 87 97 115 125 114 111 122 135 154 151 141 146 148 151 148 134 125 136 152 148 127 126 142 154 155 150 149 149 148 144 141 141 138 137 135 132 134 137 138 141 141 141 144 145 143 143 144 145 147 148 148 149 149 149 151 152 153 154 153 153 152 151 153 152 152 151 151 154 153 155 159 171 181 179 178 166 172 299 301 297 295 301 306 313 321 327 333 335 333 334 337
249 282 272 260 217 150 99 102 129 117 103 127 138 141 153 114 130 159 155 151 129 118 123 141 163 152 150 154 157 160 153 151 152 150 148 146 144 143 142 142 139 138 139 141 142 142 143 145 149 148 146 147 148 149 151 151 152 153 155 156 157 158 159 159 158 158 157 157 158 157 156 155 156 158 160 164 173 196 192 194 264 247 251 284 275 274 284 300 315 323 325 328 330 329 326 328 330
246 270 256 246 257 174 140 133 135 115 116 140 145 151 151 123 156 155 121 126 122 137 144 152 168 155 161 161 152 152 151 152 152 150 149 147 146 145 147 149 145 144 145 146 147 147 150 149 150 150 149 150 149 150 149 152 157 158 161 163 164 166 166 167 167 167 164 165 166 164 162 157 160 164 166 175 189 211 206 205 252 262 255 266 277 290 300 308 317 319 320 324 327 324 321 322 327
233 257 253 235 242 194 123 142 128 87 124 146 151 165 158 135 161 127 103 141 137 150 154 144 154 158 153 143 142 147 150 153 152 152 151 151 152 152 153 155 154 152 151 154 154 155 156 152 150 152 153 153 152 152 151 155 162 164 166 167 169 170 170 172 171 170 168 170 172 167 162 158 165 171 172 190 206 222 241 238 249 267 268 275 291 302 309 311 312 312 313 320 321 318 321 325 327
224 239 249 259 54 84 99 136 110 84 135 154 159 170 166 149 160 145 154 162 145 151 145 137 136 134 131 129 139 146 150 154 156 158 156 158 159 158 160 161 163 160 158 160 161 162 160 158 156 156 158 158 158 155 156 159 164 167 168 168 171 172 174 173 170 170 169 169 172 167 165 174 177 178 181 194 208 218 248 260 259 272 280 289 296 299 304 307 309 310 311 316 315 323 339 338 326
229 247 252 267 23 71 77 126 135 132 140 151 164 172 172 157 156 163 173 163 156 162 150 147 135 127 129 132 142 147 154 159 162 164 162 165 165 163 164 164 167 166 165 165 165 167 166 165 163 162 163 163 163 161 162 162 165 170 169 168 171 173 175 174 173 172 172 171 171 174 179 191 189 190 203 208 221 232 248 264 267 278 291 298 300 302 307 313 317 315 314 317 318 339 355 334 319
229 245 247 229 61 105 189 203 169 156 139 154 167 170 173 158 155 175 181 165 173 178 160 161 151 142 143 142 147 151 158 163 166 169 167 169 169 168 167 165 170 171 171 169 168 171 171 170 169 168 168 168 169 168 169 166 168 173 172 171 172 174 175 176 179 176 179 179 177 186 190 198 202 207 225 230 239 250 262 277 283 288 295 301 307 311 314 321 327 327 330 330 327 335 334 312 315
219 222 251 212 72 255 183 206 196 165 154 161 164 167 172 160 162 182 181 172 183 186 173 171 160 152 151 149 152 156 162 166 170 173 170 171 171 171 170 169 172 172 173 172 171 173 175 176 175 174 173 174 176 175 176 174 174 176 175 176 176 178 179 180 184 184 188 188 188 196 199 206 214 220 231 240 247 253 264 279 287 292 295 298 304 307 306 312 314 310 318 322 315 306 309 314 316
232 220 251 260 265 274 157 203 199 171 168 163 164 172 165 160 175 186 186 185 182 179 177 172 159 155 156 155 156 160 165 168 173 176 173 172 172 172 171 172 174 172 174 177 176 177 179 181 180 179 179 181 183 182 183 182 181 182 181 182 183 185 185 187 190 192 195 195 198 202 207 213 220 229 234 240 249 258 270 279 285 290 295 296 299 302 301 301 298 292 294 299 299 300 305 307 305
238 225 238 244 239 256 230 208 190 177 181 170 169 171 157 169 182 185 194 190 122 165 168 162 158 157 158 157 159 164 169 171 175 177 176 175 175 176 173 174 177 175 179 182 181 180 182 185 185 183 184 186 188 188 188 189 190 189 187 188 190 191 190 194 196 197 199 200 204 208 215 219 222 230 236 244 254 262 269 277 283 287 291 295 299 304 305 302 296 293 293 297 300 302 301 297 293
235 237 224 225 229 244 248 208 187 186 189 175 168 167 168 181 177 179 195 169 92 162 160 154 155 157 159 160 164 168 170 174 177 178 179 179 179 180 177 177 178 178 182 184 183 184 186 188 187 187 188 189 191 192 193 195 196 195 194 194 195 198 197 201 203 201 202 206 210 214 221 227 229 234 238 246 253 258 266 272 276 279 281 288 296 303 307 305 301 298 299 302 305 305 302 298 292
228 239 230 219 226 247 247 212 191 190 189 172 168 173 176 180 165 176 192 160 129 161 152 153 156 158 164 166 169 170 171 176 178 179 181 182 182 182 181 181 180 182 184 186 187 189 191 191 190 191 191 192 194 194 198 199 199 200 200 199 200 202 204 208 208 207 209 211 214 217 224 231 235 238 241 247 253 258 266 269 270 271 274 280 289 298 304 306 304 303 304 304 305 304 301 299 296
220 230 235 227 232 246 236 210 192 189 183 171 173 180 178 171 159 179 184 155 139 157 154 158 161 164 170 171 172 171 173 177 178 180 181 183 184 184 185 184 184 187 187 188 191 192 193 194 194 196 194 195 196 197 201 202 202 204 203 204 204 205 210 213 212 215 216 216 218 218 223 232 239 245 246 249 256 261 265 269 270 269 269 273 282 292 300 305 303 302 301 300 300 298 297 297 293
231 228 235 241 251 251 224 205 191 188 178 175 181 182 173 165 177 189 169 152 149 159 162 164 167 170 173 174 174 173 176 179 179 180 181 182 185 187 188 188 189 189 189 191 193 193 194 195 197 198 199 199 199 201 203 204 206 207 206 208 208 209 211 213 216 220 222 222 222 220 225 232 240 248 251 253 257 263 266 268 268 267 270 273 282 290 297 303 301 298 293 291 292 291 291 290 289
239 228 230 232 250 238 210 198 185 184 176 182 186 175 168 169 202 205 156 155 162 163 166 169 173 175 176 178 174 175 181 181 180 181 182 184 186 189 191 192 192 192 192 194 194 193 193 195 196 198 200 202 203 205 204 206 208 209 210 210 211 212 211 214 219 222 226 228 227 226 229 232 238 245 251 255 258 263 266 268 268 269 274 278 285 288 295 302 297 292 287 285 286 286 289 290 291
220 226 233 211 222 220 201 190 182 182 176 177 173 167 185 191 208 200 153 158 165 166 170 171 177 177 177 180 175 178 185 183 184 186 186 187 189 191 194 194 194 194 195 196 194 194 194 194 195 197 200 202 205 206 205 207 209 209 213 213 213 213 213 217 220 223 226 229 231 230 230 233 238 242 248 253 256 260 264 268 269 270 277 281 287 292 299 302 293 289 288 287 287 290 297 299 298
218 222 239 212 212 215 191 184 182 185 175 167 170 190 205 202 205 187 156 164 168 171 175 175 179 179 180 181 179 182 186 186 187 190 191 191 192 194 196 196 195 196 195 194 195 195 194 193 194 196 198 201 204 206 206 208 208 210 213 214 214 213 215 219 221 225 227 229 232 230 233 239 242 241 246 252 254 258 262 263 264 270 276 279 286 292 297 294 286 294 300 301 301 301 303 303 301
217 215 230 225 231 200 175 182 182 182 169 169 189 228 202 184 191 178 163 172 175 177 179 178 181 179 182 183 183 186 186 189 191 193 194 193 195 196 198 198 197 198 196 194 195 194 194 192 193 195 196 199 202 204 206 209 209 210 212 213 214 213 215 219 223 226 226 230 232 230 232 237 245 249 249 248 248 253 257 260 265 272 273 275 284 284 283 285 290 299 306 309 310 310 308 303 301
213 214 215 216 232 177 164 183 190 182 163 178 203 237 215 163 171 172 171 177 181 187 184 181 183 181 184 185 187 190 186 189 194 196 197 195 197 197 198 199 198 198 198 196 194 193 195 194 193 195 195 196 199 203 206 209 210 211 213 214 213 213 217 222 226 229 230 231 230 231 230 232 246 255 257 255 249 249 258 267 273 274 271 271 277 274 277 291 299 305 311 314 315 315 309 303 302
208 218 220 210 214 187 165 186 198 186 161 182 206 225 228 162 162 170 176 181 183 193 191 185 186 184 185 188 189 192 187 188 196 200 198 197 198 197 197 198 198 199 198 197 194 193 196 196 196 198 197 195 197 200 203 207 210 211 213 215 216 216 220 226 228 230 232 231 231 232 227 229 243 255 262 261 251 252 264 274 274 266 253 243 260 280 296 304 309 312 314 313 312 310 303 301 304
202 213 225 219 214 203 174 182 198 193 174 187 206 221 230 141 156 173 180 184 186 194 196 190 189 188 187 189 191 192 191 191 196 200 199 198 198 197 198 197 198 199 199 200 197 196 197 198 200 201 201 199 198 199 201 205 209 211 214 217 220 221 224 229 229 230 230 229 230 231 225 226 240 253 261 263 265 271 271 265 252 225 201 192 256 298 308 311 314 311 307 305 302 299 297 299 302
204 207 216 219 219 213 195 185 191 194 192 196 204 217 227 190 161 177 184 187 192 196 198 196 193 191 189 190 194 193 194 197 198 199 198 198 198 197 197 198 198 199 201 201 201 200 200 201 203 202 203 202 201 201 202 205 209 213 216 219 222 224 227 228 228 229 228 227 227 226 224 227 234 243 258 271 278 276 260 234 215 197 194 199 250 295 305 306 307 303 298 296 291 285 285 290 294
213 212 214 219 217 213 210 201 188 190 197 206 206 214 223 212 182 180 185 188 198 200 198 201 199 196 194 194 196 195 197 201 197 197 197 197 198 197 197 197 198 199 201 201 201 201 201 202 203 203 202 202 201 201 202 207 211 214 217 220 222 222 224 225 227 229 228 229 227 222 222 228 237 246 262 275 269 249 229 216 211 202 203 212 235 282 302 304 306 300 291 290 289 287 285 287 294
221 216 219 227 227 215 209 202 188 188 199 211 211 218 223 221 206 190 187 188 197 203 200 203 203 201 199 198 199 198 200 202 195 195 197 198 198 198 198 198 198 200 201 201 201 201 201 201 203 204 202 201 202 203 204 208 211 213 215 218 221 220 220 222 224 227 229 230 224 219 220 227 244 256 265 264 237 224 220 214 213 205 208 226 234 264 293 301 302 291 286 286 289 294 296 301 308
221 220 222 226 233 227 201 187 185 193 208 216 212 221 226 225 222 199 191 195 197 203 204 205 205 205 204 203 203 202 201 200 193 192 195 198 199 199 199 199 200 201 201 202 202 203 203 203 204 205 204 203 205 206 207 210 212 214 215 218 221 222 221 223 227 230 233 233 224 221 223 230 248 257 253 242 227 225 221 212 212 211 219 233 238 258 285 301 299 288 287 291 296 302 310 328 337
219 226 228 224 230 227 182 170 190 197 214 223 210 222 231 225 224 211 203 205 203 204 208 208 207 206 206 206 205 203 201 198 194 193 194 197 200 200 200 201 202 203 202 202 203 204 204 204 204 205 206 206 208 209 210 212 213 214 216 219 222 225 226 228 233 236 235 234 230 229 231 236 245 243 231 228 227 227 221 214 218 222 229 241 252 272 297 308 301 290 293 302 314 309 308 349 2
222 226 227 228 226 218 190 186 197 199 214 237 226 226 237 231 227 221 214 213 209 207 211 212 210 210 210 208 206 204 201 198 196 196 196 197 200 201 201 201 202 203 203 203 202 202 202 202 203 203 205 207 209 209 210 212 212 212 215 218 222 227 231 231 235 237 236 236 236 236 237 239 241 236 229 228 228 228 223 221 228 234 239 250 266 286 309 312 302 291 300 317 324 310 305 360 20
220 224 225 231 225 217 210 193 191 202 213 232 240 237 240 235 231 225 217 216 214 209 210 213 212 212 214 212 209 207 204 199 197 199 200 198 199 201 201 201 201 202 203 203 202 201 202 201 200 200 203 206 209 209 208 210 212 213 214 218 224 227 231 232 232 235 234 234 236 236 236 237 239 240 239 237 233 231 228 227 233 243 254 262 270 295 316 317 300 287 298 317 324 316 314 333 29
217 220 224 232 231 223 217 195 183 208 216 210 221 240 246 232 231 229 219 214 212 208 207 210 210 210 213 215 212 210 208 203 199 200 201 200 200 200 200 200 201 202 203 204 203 203 201 200 198 199 202 206 208 209 209 210 212 215 215 216 219 220 224 227 227 231 232 231 235 234 234 236 239 243 241 238 235 232 232 235 242 252 261 263 267 299 310 298 276 267 280 289 299 312 309 302 274
222 213 215 228 235 230 222 203 192 217 227 203 206 233 254 241 233 226 218 216 211 207 210 209 206 205 208 212 211 209 209 206 203 202 203 202 200 199 199 199 201 203 203 202 203 203 200 198 197 198 201 205 208 209 209 211 214 217 217 218 219 218 221 224 225 230 233 232 233 232 234 238 240 241 240 238 235 233 237 242 248 249 249 253 265 282 275 263 252 243 246 245 243 232 252 270 271
228 212 207 217 226 226 220 208 208 228 234 216 213 226 249 253 244 225 214 217 212 207 213 212 207 206 206 208 210 209 209 206 205 204 204 203 201 200 199 198 200 203 203 201 201 202 200 198 197 198 201 203 206 207 208 211 214 217 218 219 221 221 222 223 222 224 228 229 227 230 237 242 242 238 235 235 231 228 231 233 234 232 235 241 246 247 241 239 234 220 214 190 200 226 229 255 291
234 224 205 206 217 224 222 216 220 228 229 228 222 222 240 251 245 229 210 216 217 213 215 214 210 208 206 207 208 208 209 207 206 206 204 202 201 201 199 198 201 203 203 202 201 201 200 199 199 198 200 202 203 204 207 211 213 215 217 219 220 222 222 224 224 223 224 225 226 230 236 236 236 233 228 225 219 215 216 217 219 220 224 224 225 229 223 221 224 212 208 202 200 215 224 266 294
226 222 204 203 213 222 224 226 226 225 224 225 219 214 228 252 242 225 215 220 227 225 219 215 212 209 206 206 207 206 206 206 208 208 205 202 201 201 200 199 200 202 203 202 200 200 199 199 199 199 200 202 202 204 206 209 211 213 215 219 220 220 220 222 227 225 223 225 226 227 229 229 228 226 222 211 203 204 208 212 216 214 213 213 213 217 214 213 214 207 210 213 204 201 199 218 269
214 207 207 205 211 219 224 227 232 235 226 224 227 213 211 245 246 223 215 222 231 235 229 220 213 210 208 205 204 203 202 201 205 207 205 203 201 201 200 200 200 201 201 200 199 199 199 198 198 200 202 202 201 204 207 208 210 212 215 217 219 219 217 217 222 224 221 223 224 223 225 226 221 217 213 204 200 204 208 213 217 213 208 205 203 205 211 213 208 202 208 211 202 201 203 195 207
218 215 213 204 199 208 219 218 224 240 229 223 233 220 206 233 249 229 215 220 232 242 240 232 219 210 207 204 204 202 199 198 198 203 204 202 200 199 199 199 199 197 197 198 199 199 198 197 197 199 202 202 201 202 207 209 209 211 214 217 218 218 217 216 219 222 220 222 223 220 222 223 213 205 205 204 206 207 207 210 214 210 205 202 200 200 206 210 206 202 207 211 205 201 206 207 217
217 219 214 206 199 199 210 213 212 230 233 228 233 224 213 229 245 243 232 222 229 237 242 249 239 220 206 200 202 201 198 197 194 196 200 199 199 197 196 196 195 194 194 195 198 199 198 197 197 199 201 202 202 202 205 208 209 211 214 215 217 217 216 217 219 222 221 223 225 218 218 218 207 201 204 206 209 208 206 209 209 207 204 203 201 201 205 207 203 202 207 213 212 207 206 210 232
208 211 210 208 207 206 210 214 214 223 229 228 229 227 225 233 239 239 240 237 237 241 247 253 252 240 216 200 199 198 198 198 195 194 196 196 197 194 194 193 192 192 193 193 195 197 197 196 196 199 201 201 201 202 204 207 209 212 214 214 215 214 214 215 218 223 223 223 225 217 214 216 207 205 208 207 209 209 208 210 208 206 206 203 201 203 208 210 207 209 215 222 223 219 216 215 228
207 211 216 216 215 218 215 213 217 222 225 220 214 214 227 235 230 225 234 240 244 250 255 252 244 234 218 202 198 197 197 198 196 195 195 194 193 192 193 192 191 191 192 193 194 194 195 196 196 198 201 200 200 201 203 205 208 211 213 214 213 211 213 214 216 222 221 219 224 217 209 212 211 211 211 208 208 209 209 211 209 208 207 203 202 204 209 212 213 218 222 229 233 227 224 224 231
205 211 220 222 219 224 230 231 230 228 228 221 207 206 231 239 232 203 222 236 241 249 255 250 234 214 203 198 198 198 198 196 196 197 197 194 190 191 192 192 192 192 192 193 193 192 194 196 196 198 200 199 198 200 203 205 206 208 211 213 212 210 210 211 213 217 215 213 219 215 206 208 211 211 209 205 206 208 211 212 209 210 208 205 205 205 209 214 216 223 230 235 238 234 231 234 239
195 206 219 222 223 228 234 235 234 231 233 228 209 211 228 236 238 231 233 242 245 245 247 245 234 208 200 200 198 200 199 197 197 197 197 194 190 191 193 192 192 192 193 193 191 192 195 196 196 198 199 198 198 201 203 204 204 206 210 212 211 209 208 210 211 211 207 207 211 210 209 213 213 211 207 205 206 209 211 212 211 213 210 207 208 207 211 214 217 227 235 238 240 237 236 239 243
206 207 211 213 229 240 238 229 218 220 232 233 224 223 223 227 235 233 234 241 243 242 244 248 237 208 205 208 202 201 199 198 199 197 197 196 193 193 193 193 193 192 192 190 190 192 195 195 195 195 196 198 199 201 202 203 202 205 209 210 210 209 209 211 210 207 202 201 203 205 211 217 214 210 207 205 208 210 210 211 213 215 212 209 211 213 215 213 217 229 236 238 239 239 241 243 245
226 228 209 206 218 224 225 226 221 221 228 236 236 234 227 227 232 223 219 227 232 232 235 243 232 207 208 211 204 201 198 197 199 198 198 197 197 195 193 194 194 193 191 189 191 193 194 195 196 196 197 199 200 200 200 201 202 204 207 208 209 210 210 210 208 205 199 198 201 201 206 211 208 203 202 202 206 211 211 211 213 216 213 210 211 217 218 213 215 226 233 235 233 231 237 242 243
223 234 223 217 221 218 216 222 228 231 232 235 238 237 227 224 232 226 216 215 223 227 231 244 245 225 217 212 204 198 195 197 199 199 199 198 199 198 195 194 194 192 190 190 192 193 194 195 195 196 198 198 198 198 197 199 201 204 205 205 208 209 208 204 200 201 200 198 199 197 199 202 197 194 197 199 206 212 211 210 212 213 213 213 216 216 217 216 218 224 230 233 229 225 233 240 243
205 216 220 215 214 222 227 224 224 232 238 236 237 240 231 216 223 226 223 223 232 246 252 255 259 252 236 216 202 193 192 198 199 198 200 198 198 198 195 194 193 191 190 192 194 194 195 196 196 196 196 196 197 197 197 198 200 201 201 204 207 206 202 197 194 203 207 198 193 194 194 194 194 198 199 196 203 209 210 209 209 210 210 215 223 221 217 219 220 221 223 227 228 227 234 242 247
201 203 216 216 210 215 225 225 220 225 235 237 238 244 239 218 206 214 224 231 235 241 250 254 258 261 252 215 197 194 194 201 201 199 201 199 196 196 194 192 191 191 191 193 195 194 196 197 196 197 197 197 198 198 197 198 198 199 201 205 206 200 195 191 192 205 210 199 193 194 196 196 197 202 201 196 199 203 203 204 203 204 203 209 223 224 221 223 222 217 215 218 223 229 237 246 251
Height
770 771 772 773 771 773 773 776 787 775 769 785 784 786 790 778 778 783 788 786 786 785 777 778 779 781 786 790 794 797 798 801 805 808 814 814 810 814 813 814 815 815 818 818 819 819 820 821 822 823 824 825 825 827 828 828 829 831 832 834 835 837 837 838 840 841 842 844 845 846 847 848 849 849 849 849 849 849 849 850 851 852 853 853 854 854 854 854 854 855 855 855 855 855 855 855 855
770 771 771 772 769 773 771 771 785 774 775 795 786 785 787 777 780 786 788 786 786 783 776 778 780 782 783 785 787 791 799 798 798 803 806 807 811 814 814 816 816 817 818 819 821 821 822 823 823 824 824 826 826 828 828 830 831 832 834 836 837 838 838 840 842 843 844 845 846 847 849 849 850 850 850 850 850 850 851 851 852 853 853 854 854 854 855 855 855 855 856 856 856 856 855 855 855
770 770 770 772 767 767 766 768 779 778 787 800 793 784 779 781 784 784 783 782 781 778 778 780 782 785 785 789 791 796 805 800 796 800 804 808 810 813 816 817 817 818 818 819 822 823 825 825 825 825 826 827 829 829 830 832 833 834 836 838 839 839 840 842 844 845 845 846 847 849 850 850 851 851 851 851 851 851 851 852 853 854 854 855 855 855 855 856 856 856 856 856 856 856 855 855 855
769 769 768 769 768 767 767 771 772 776 790 794 796 787 777 782 782 782 780 779 778 776 781 782 788 786 785 797 796 796 805 801 798 800 804 808 809 813 816 817 819 820 819 820 821 822 825 826 828 828 829 830 831 832 832 834 836 838 839 841 841 841 843 844 845 846 846 847 848 850 851 852 852 852 852 852 852 852 852 853 854 854 855 855 855 856 856 856 856 856 856 856 856 855 855 855 855
769 769 767 766 771 771 768 770 768 777 788 784 792 788 777 780 780 784 781 779 778 778 782 782 792 789 786 796 793 799 807 803 800 799 805 809 810 814 816 819 820 821 823 822 822 822 824 826 828 829 830 831 832 833 835 836 838 840 841 842 843 843 845 845 846 846 847 848 849 851 852 852 853 853 853 853 852 852 853 854 854 855 855 856 856 856 856 856 856 856 856 856 856 855 855 855 855
768 768 765 764 766 767 772 777 776 784 784 774 785 786 777 778 779 784 782 781 778 777 780 781 790 791 795 796 790 798 802 802 803 802 806 809 812 815 817 819 820 822 824 825 826 826 826 827 828 830 831 832 834 835 837 839 840 841 842 843 843 844 845 846 847 847 848 849 851 852 852 853 853 853 853 853 853 853 854 854 855 856 856 857 857 857 856 857 856 857 856 856 856 855 855 855 855
766 768 765 768 766 765 777 782 782 786 781 771 777 781 777 778 778 782 785 786 784 781 781 783 784 791 803 799 797 801 799 802 802 804 807 810 814 815 817 819 820 823 825 827 828 829 830 830 831 832 833 834 836 837 838 839 841 842 843 844 844 845 846 846 847 848 849 850 852 852 853 853 853 854 853 853 853 854 855 855 856 856 857 857 857 857 857 857 857 857 857 857 857 856 856 855 854
766 768 764 774 775 767 776 782 783 783 780 773 772 775 776 777 777 782 786 787 789 786 784 784 781 795 805 797 805 806 800 804 803 807 809 811 814 816 818 819 821 823 825 827 829 830 831 832 833 834 835 836 837 838 839 840 842 842 844 844 845 845 846 847 848 849 850 851 852 853 853 854 854 854 854 854 854 854 855 856 856 857 857 858 858 858 858 858 858 858 858 857 857 857 856 855 854
764 767 766 776 778 773 779 784 784 780 778 775 774 776 775 776 777 780 785 785 786 786 787 784 781 797 804 799 809 806 802 807 806 809 810 813 815 816 819 819 821 823 825 827 829 830 831 833 834 835 836 837 838 839 840 841 842 843 845 845 845 846 847 848 848 850 851 852 853 853 854 854 854 854 854 854 854 855 856 856 857 857 858 858 858 858 859 858 858 858 858 858 857 857 857 856 855
764 767 771 776 778 782 786 786 785 783 779 775 775 776 775 776 777 780 784 787 785 786 786 781 783 794 801 805 810 805 806 809 808 811 812 814 815 817 819 819 822 823 825 827 829 831 831 833 834 836 837 838 839 840 841 842 843 844 845 845 846 847 848 849 849 851 851 852 853 854 854 854 854 854 855 855 855 856 856 857 857 858 858 859 859 859 859 858 858 858 858 858 858 857 857 856 856
770 767 768 778 784 791 791 788 787 784 780 776 776 774 773 774 778 782 783 787 785 788 787 783 790 795 799 806 808 805 807 809 809 812 813 815 816 818 819 820 823 823 826 827 829 831 832 834 834 836 837 839 840 840 842 843 844 844 845 846 847 848 848 849 850 851 852 853 854 854 854 854 855 855 855 855 856 856 857 857 858 858 859 859 859 859 859 859 859 858 858 858 858 857 857 857 856
776 770 769 784 788 789 787 787 787 784 782 780 781 775 771 773 780 784 786 790 787 790 788 785 790 791 801 809 807 806 807 809 810 812 814 816 817 818 820 821 823 824 826 828 829 831 832 834 835 837 837 839 840 841 842 843 844 845 846 847 847 848 849 850 851 852 853 854 854 854 855 855 855 855 855 856 856 856 857 858 858 859 859 860 859 859 859 859 859 858 859 858 858 857 857 856 856
774 770 773 785 781 782 784 786 787 786 786 781 780 774 770 776 781 782 784 789 788 793 789 782 783 787 802 808 805 806 807 809 811 814 815 816 818 819 821 822 824 826 827 828 830 831 832 834 835 837 838 839 840 842 843 844 845 845 847 847 848 849 850 851 852 853 853 854 854 855 855 855 855 856 856 856 857 857 857 858 859 859 859 860 859 859 859 859 859 858 858 858 858 857 857 856 856
767 764 771 784 778 778 782 786 788 789 788 778 775 773 772 776 777 776 780 790 791 789 785 778 778 789 803 807 809 807 805 809 811 814 815 817 819 819 822 823 825 826 828 829 830 831 832 834 836 837 839 840 841 842 843 844 845 846 847 848 849 850 851 852 852 853 854 854 855 855 855 855 856 856 857 857 857 858 858 859 859 860 860 859 859 859 859 858 858 858 858 858 857 857 856 856 855
762 760 768 781 780 781 782 784 785 787 787 777 774 773 775 776 773 776 778 787 790 780 779 780 778 791 802 805 810 803 802 809 811 814 816 818 819 821 823 824 826 827 829 830 830 832 833 835 836 838 839 840 841 842 844 845 846 847 848 849 850 851 851 852 853 854 854 855 855 855 856 855 856 856 857 857 858 858 858 859 859 859 859 859 859 859 859 858 858 858 857 857 857 857 856 855 855
756 759 769 781 783 785 782 779 780 786 783 774 772 772 779 779 772 778 774 777 787 779 780 785 782 788 793 794 800 797 801 809 811 815 816 819 820 822 823 824 826 827 829 830 831 833 834 835 836 838 839 840 841 842 844 845 846 847 848 849 850 851 852 852 853 853 854 855 855 855 856 856 856 856 857 858 858 858 858 859 859 859 859 859 859 859 859 858 858 857 857 857 856 856 856 855 855
754 763 775 781 782 783 778 777 780 783 778 772 773 772 782 785 775 776 772 772 784 784 783 786 783 784 786 788 793 796 803 808 811 814 815 819 820 821 823 824 826 827 829 831 832 833 834 835 836 838 839 840 842 843 844 845 846 847 848 849 850 851 851 852 853 853 854 854 855 855 856 856 856 857 857 858 858 858 858 858 858 858 858 858 858 858 858 858 858 857 856 856 856 855 855 855 854
761 771 778 780 779 775 769 770 770 769 772 773 773 773 778 786 782 776 777 780 784 786 786 785 785 783 784 788 793 798 804 807 810 813 814 817 818 819 822 823 825 826 828 830 831 833 834 835 836 838 839 840 842 843 844 845 846 847 848 849 850 851 851 852 853 853 854 854 855 855 856 856 856 857 857 858 858 858 858 858 858 857 857 858 858 858 857 857 857 856 856 855 855 855 854 854 854
765 769 777 778 771 764 758 759 761 761 767 771 771 771 774 780 780 777 783 789 787 791 792 789 791 790 789 791 796 800 803 807 809 810 812 814 816 818 819 822 824 825 827 829 831 832 833 835 836 838 839 840 841 843 844 845 846 847 848 849 850 851 851 852 852 853 854 854 855 855 856 856 856 857 857 857 857 858 858 857 857 857 856 856 857 857 857 856 856 856 855 855 854 854 854 854 854
760 763 778 772 759 758 753 754 757 756 760 768 772 770 773 775 775 777 783 789 789 792 792 791 796 796 794 793 795 800 803 806 808 809 811 813 815 816 818 820 822 824 826 828 830 832 833 834 836 837 838 840 841 842 843 844 845 846 847 848 849 850 851 851 852 853 854 854 855 855 856 856 856 857 857 857 857 858 857 857 857 856 856 856 856 856 856 856 856 856 855 855 854 854 854 854 854
756 761 772 761 753 759 754 751 753 753 756 765 770 772 775 772 772 777 781 789 793 787 784 786 791 793 793 794 795 799 802 804 807 808 810 812 814 815 817 819 822 824 826 827 829 831 832 834 835 837 838 839 841 842 843 844 845 846 847 848 849 849 850 851 852 852 853 854 854 855 856 856 856 856 857 857 857 858 857 857 857 856 856 856 856 855 856 856 856 856 855 855 855 855 855 855 855
757 759 758 751 753 760 753 748 751 752 755 762 770 774 774 770 773 777 779 789 788 778 776 777 781 786 788 791 794 797 800 803 805 807 809 811 813 814 817 819 821 823 825 827 828 830 831 833 835 836 838 839 840 841 842 844 844 845 846 847 848 849 850 851 851 852 853 853 854 855 855 856 856 856 856 856 857 857 857 857 856 856 856 856 856 856 856 856 855 855 855 855 855 855 855 855 854
761 759 750 749 751 755 751 747 750 752 757 764 768 768 767 773 778 774 777 781 775 767 768 772 777 781 784 788 792 796 798 801 803 805 807 809 812 813 815 818 820 822 824 826 827 829 830 832 834 835 837 838 839 841 842 843 844 845 846 847 848 849 849 850 851 852 852 853 854 855 855 855 856 856 856 856 856 856 857 856 856 856 855 855 855 855 855 855 855 855 855 855 855 854 854 854 854
760 760 750 749 748 750 748 745 749 751 757 760 759 763 768 778 778 774 776 775 770 766 765 770 776 779 784 788 790 793 796 799 801 803 806 808 811 812 814 817 819 821 823 825 826 828 829 831 833 834 836 837 839 840 841 842 844 845 845 846 847 848 849 850 850 851 852 852 853 854 854 855 855 855 856 856 856 856 856 856 856 855 855 855 855 855 855 854 855 854 854 854 854 854 853 853 853
757 758 750 747 748 747 744 744 749 751 754 754 757 766 770 771 771 775 776 771 770 767 767 772 776 780 784 788 790 792 795 797 800 802 805 807 810 812 814 816 818 820 821 823 826 827 829 830 832 833 835 837 838 839 841 842 843 844 845 846 847 848 849 849 850 851 851 852 853 853 854 854 854 855 855 855 855 855 855 855 855 855 855 855 854 854 854 854 854 854 854 853 853 853 853 853 852
751 751 747 747 749 745 744 746 749 751 751 753 762 771 768 764 768 777 773 769 770 768 771 775 777 783 785 787 789 791 794 796 798 801 804 806 809 811 813 815 817 819 821 822 824 826 828 830 831 833 834 836 837 839 840 841 842 843 844 845 846 847 848 849 849 850 850 851 852 852 853 854 854 854 854 854 855 854 854 855 854 854 854 854 854 854 854 854 854 853 853 853 853 852 852 852 851
742 745 746 747 749 744 745 748 749 750 751 754 764 771 767 763 772 780 771 766 770 770 775 776 779 784 784 786 788 790 794 794 797 800 802 805 807 810 811 814 815 817 820 822 823 825 827 829 830 832 834 835 836 838 839 840 841 842 843 844 846 846 847 848 849 849 849 850 851 851 852 852 853 853 854 854 854 854 854 854 854 854 853 853 854 854 854 853 853 853 852 852 852 851 851 850 850
741 746 750 750 749 747 746 749 750 751 756 755 759 769 770 769 776 775 767 767 770 772 777 778 780 784 783 786 787 790 792 793 797 798 801 803 805 808 810 812 814 816 818 820 822 824 826 827 829 831 833 834 836 837 838 839 840 841 843 843 844 845 846 847 847 848 848 849 850 850 851 851 852 853 853 853 853 853 853 853 853 853 853 853 853 853 853 853 852 852 852 851 851 850 850 849 849
745 747 756 756 752 754 750 749 750 753 759 753 756 779 782 777 777 766 761 767 769 773 778 779 781 782 783 785 786 790 791 792 795 796 799 801 804 806 808 810 812 814 817 819 821 822 824 826 828 830 832 833 835 836 837 838 839 840 842 842 843 844 845 846 846 847 847 848 848 849 850 850 851 852 852 852 852 852 852 852 852 852 853 852 852 852 851 852 851 851 851 850 850 850 849 849 849
749 748 755 760 763 763 751 748 751 754 758 749 761 792 788 774 769 761 760 765 770 776 778 779 781 781 783 784 786 788 789 791 792 794 797 799 802 804 805 808 810 813 815 817 819 821 823 825 827 828 830 832 833 835 836 837 838 839 840 841 842 843 844 845 845 845 846 847 847 848 848 849 849 850 851 851 851 851 851 851 852 852 852 852 851 851 851 851 851 850 850 850 849 849 848 848 848
751 754 756 760 771 768 750 748 754 759 758 748 764 789 778 764 762 759 760 763 769 777 778 778 780 780 782 783 785 787 787 789 791 793 795 797 800 802 804 806 808 811 813 815 817 819 822 823 825 827 828 830 832 834 835 836 837 838 839 840 841 841 842 843 843 844 845 845 846 846 847 847 848 848 849 850 850 850 851 851 851 851 850 850 850 850 850 850 850 850 849 849 849 848 848 848 847
751 764 769 762 766 766 755 751 752 759 760 751 768 786 773 759 758 757 759 761 767 774 776 776 778 779 781 782 784 786 786 788 790 792 794 796 798 800 802 804 806 809 811 813 816 818 820 822 824 825 827 829 830 832 833 835 836 836 838 838 839 840 841 841 842 843 843 844 845 845 845 846 846 847 847 848 848 849 850 850 849 849 849 849 849 849 849 849 849 849 848 848 848 847 847 847 846
753 763 772 764 763 767 765 757 747 752 761 760 768 779 772 759 756 757 758 760 765 771 773 774 777 777 779 781 782 783 785 787 788 789 791 794 796 798 800 803 805 807 810 812 814 816 818 820 822 823 825 827 828 831 832 833 834 835 836 837 838 839 839 840 841 841 842 842 843 844 844 844 845 845 846 846 847 848 848 848 848 848 848 848 849 849 849 849 848 848 848 848 847 847 847 846 846
759 759 764 760 758 763 768 765 752 747 760 766 767 770 768 759 756 759 759 759 764 769 771 772 774 776 777 779 780 781 783 785 786 786 788 792 794 797 799 801 804 806 808 810 812 815 816 818 820 822 824 825 827 828 830 832 833 834 834 836 837 837 838 839 839 840 840 841 841 842 842 843 843 843 844 845 845 846 847 847 847 847 847 847 848 848 848 848 848 848 847 847 847 847 846 846 845
761 761 762 762 757 758 764 765 756 750 759 766 769 772 767 760 759 761 759 758 763 766 768 769 771 774 775 776 778 779 781 782 782 783 786 789 792 795 797 799 802 804 806 808 811 813 814 817 818 820 822 823 825 827 828 830 831 832 833 834 835 835 836 837 838 838 839 839 839 840 841 841 842 842 843 843 844 845 845 846 846 846 846 847 847 848 848 848 848 848 847 847 847 846 846 845 845
750 752 755 759 758 757 755 753 748 749 761 765 766 772 768 761 761 762 759 758 763 765 765 768 769 771 773 775 776 776 778 779 778 780 784 787 790 792 795 797 800 802 804 806 809 811 812 814 816 818 820 821 824 825 826 828 829 830 831 832 833 833 834 835 836 836 837 838 838 839 839 839 840 841 841 842 843 843 844 844 845 845 846 846 847 847 847 847 847 847 846 846 846 845 845 844 844
741 746 750 751 752 753 746 744 742 742 760 764 758 765 764 760 759 758 759 759 763 766 766 768 768 769 771 772 773 773 775 774 774 778 781 784 788 790 793 795 797 800 802 804 806 808 810 812 814 815 817 820 821 822 824 825 826 828 828 829 830 831 832 833 834 834 835 836 836 837 837 838 838 839 840 840 841 842 842 843 843 844 845 845 846 846 846 846 846 846 845 845 845 844 844 843 843
741 745 748 749 749 746 736 740 743 741 756 760 753 761 763 758 755 754 757 761 763 763 765 767 766 767 768 769 771 771 771 770 771 775 778 782 785 787 790 792 794 796 799 801 803 805 808 809 811 813 815 817 818 820 821 823 824 825 826 827 828 829 830 831 832 832 833 834 835 835 836 836 837 837 838 839 840 840 841 842 842 843 844 844 845 845 846 846 845 845 845 844 844 843 843 843 843
743 743 747 752 746 741 740 743 745 745 756 759 753 761 762 753 752 752 755 758 758 756 758 761 762 765 766 767 768 768 769 770 770 772 774 777 780 783 787 789 791 793 796 799 800 803 805 807 808 810 812 814 816 818 819 820 821 822 824 825 826 827 828 830 830 831 832 832 833 834 834 835 835 836 837 838 838 839 840 841 842 842 843 843 844 844 845 845 845 844 844 844 843 843 842 842 842
744 743 749 753 741 744 758 756 750 747 751 754 753 759 760 753 751 750 750 751 751 751 752 753 756 760 761 761 763 764 767 769 769 770 770 773 776 779 782 785 787 790 793 795 797 800 801 803 805 807 809 811 813 815 816 818 820 821 822 823 825 826 827 828 829 829 830 831 831 832 833 833 834 835 836 836 837 838 839 840 841 841 842 843 843 844 844 844 844 844 844 844 843 842 841 841 842
742 740 744 747 738 742 752 752 750 751 751 750 755 768 767 756 756 753 747 747 749 748 750 752 752 753 756 756 758 760 761 764 766 767 766 768 771 774 778 781 784 786 789 791 793 796 798 800 802 804 806 808 810 812 814 816 818 819 820 822 824 825 825 826 827 827 828 829 830 830 831 832 833 834 835 835 836 837 838 838 840 840 841 842 842 843 843 843 844 844 844 843 843 842 841 841 842
744 737 735 737 735 737 740 743 753 766 768 754 758 785 780 753 752 752 745 748 750 748 749 752 752 751 754 756 756 756 756 758 760 762 763 763 766 770 774 777 780 782 785 787 790 792 795 797 799 801 803 806 808 810 812 814 815 817 818 820 821 822 823 824 824 825 826 827 828 829 830 831 831 832 833 834 835 836 837 837 838 839 840 841 841 842 842 843 843 843 843 843 843 843 842 841 841
747 732 726 730 731 735 739 743 757 773 772 752 752 782 785 758 749 745 741 747 750 749 748 748 749 750 751 752 752 752 753 754 755 757 758 759 762 766 769 773 776 778 781 784 787 789 792 794 796 799 801 803 805 807 809 811 813 815 816 817 818 819 820 821 822 824 825 826 827 828 829 829 830 831 832 833 834 835 836 837 837 838 839 840 840 841 841 842 842 843 843 843 843 843 843 842 841
742 721 720 730 732 737 740 744 757 759 756 754 750 764 781 773 752 737 737 746 749 749 749 745 744 745 745 746 746 747 748 749 751 754 754 755 758 761 764 769 771 775 778 781 784 787 789 791 794 796 798 800 802 804 806 808 810 812 814 815 816 817 818 819 821 822 823 825 826 827 827 828 829 830 832 832 833 834 835 836 837 837 838 839 840 840 841 841 842 842 843 843 844 844 844 843 843
731 713 717 726 730 735 735 741 752 749 756 773 760 756 781 781 751 736 739 747 751 749 745 742 740 739 740 740 740 741 742 743 745 748 750 751 754 757 761 764 768 772 775 778 781 784 786 788 791 793 795 797 799 801 803 805 808 810 811 813 814 815 816 818 819 820 822 823 824 825 826 828 829 829 831 831 832 833 834 835 836 836 837 838 839 839 840 840 841 842 843 843 844 844 845 845 844
722 715 720 724 726 730 733 739 746 747 762 776 762 755 779 781 752 741 745 749 749 742 735 734 732 732 733 734 734 735 737 739 740 742 744 746 749 753 757 761 765 768 772 775 778 780 783 786 788 790 792 794 796 798 800 803 805 807 809 810 811 812 814 816 818 819 820 822 823 824 825 827 828 829 830 831 832 832 833 834 835 836 836 837 838 838 839 840 840 841 842 843 843 844 845 845 845
718 723 729 730 731 731 735 737 741 756 765 764 753 747 768 780 755 736 739 741 736 731 728 726 724 726 727 727 728 729 732 734 736 738 739 742 746 750 754 757 761 765 768 771 774 777 780 782 784 787 789 791 793 795 797 800 802 804 805 807 808 810 812 814 816 817 818 820 821 823 824 826 827 828 829 830 831 832 833 834 834 835 835 836 836 837 838 838 839 840 841 842 842 843 844 844 844
722 731 734 742 747 745 750 749 752 772 773 758 746 738 759 779 755 727 724 722 720 722 722 720 719 720 720 721 722 723 725 728 731 735 736 739 743 746 750 753 757 761 764 767 770 773 776 778 781 783 786 788 790 792 794 797 799 800 802 804 806 808 810 812 813 815 817 818 820 821 823 824 825 827 828 829 830 831 832 832 833 834 834 835 835 836 837 837 838 839 840 841 841 842 842 843 843
727 734 738 753 765 767 775 771 768 778 769 748 737 736 753 763 741 721 716 712 712 713 711 710 710 711 713 716 718 718 720 723 726 731 733 735 738 741 744 748 752 756 759 762 766 769 772 774 776 779 782 784 787 789 791 793 795 797 799 801 803 806 808 809 811 813 815 817 818 819 821 823 824 825 826 828 829 830 830 831 832 833 833 834 835 836 836 837 838 838 839 840 840 841 841 842 842
731 734 739 754 765 778 788 778 772 774 760 740 730 737 752 750 729 715 712 708 704 702 701 701 702 704 707 709 711 714 716 718 721 724 728 731 733 736 739 743 747 750 754 758 761 764 767 770 772 775 778 780 783 785 788 790 792 794 796 798 801 803 805 807 809 811 813 815 816 817 819 821 822 823 825 826 827 828 829 830 831 832 833 834 834 836 836 837 837 838 839 839 840 840 841 841 842
727 722 726 740 745 760 774 769 768 769 755 741 736 745 755 747 725 707 702 700 696 696 695 694 697 700 701 703 706 710 711 713 716 718 721 724 727 730 734 737 741 745 749 753 756 760 763 765 768 770 773 776 779 782 784 786 788 791 793 796 798 800 802 804 806 808 810 812 814 815 817 818 820 822 823 824 826 827 828 829 830 831 832 833 834 835 836 836 837 838 838 839 839 839 840 840 841
722 712 722 732 726 732 746 747 743 746 751 745 740 744 738 723 710 699 698 699 695 696 694 692 697 698 699 703 704 705 707 708 711 713 716 718 721 725 728 732 736 739 743 747 751 755 757 760 763 766 769 772 775 778 780 783 785 788 790 792 795 797 799 801 803 806 808 809 812 813 814 816 818 820 822 823 825 826 827 828 829 830 831 832 833 833 834 835 836 837 837 838 838 839 839 839 840
716 717 725 718 705 714 736 742 730 736 755 744 731 739 731 716 712 701 699 702 698 697 695 692 694 696 700 703 701 701 702 703 705 707 710 712 714 718 722 726 730 734 738 741 745 749 752 755 758 762 766 769 772 774 776 779 782 785 787 789 792 794 796 798 800 803 804 806 809 811 813 815 817 819 821 822 824 825 827 828 828 829 830 831 832 832 833 834 835 836 836 837 838 838 838 838 839
711 721 715 704 706 712 722 739 744 750 762 742 724 735 735 732 728 706 698 705 701 697 694 690 689 693 698 698 697 697 696 697 700 701 704 706 707 711 714 719 723 727 732 736 740 743 746 751 754 757 761 764 767 770 772 776 778 781 784 786 789 791 793 795 797 799 801 804 807 809 811 814 816 818 820 821 823 824 826 827 827 828 829 830 831 831 832 833 834 835 835 836 836 837 837 837 837
698 703 695 703 728 733 726 738 749 755 761 747 730 727 727 729 723 706 704 706 700 695 691 688 687 690 694 693 692 693 692 694 697 697 700 701 702 705 708 713 718 722 727 730 735 739 742 747 750 753 756 759 763 766 769 773 775 778 780 782 785 787 789 791 794 797 799 802 805 807 810 813 814 816 818 820 822 823 824 825 826 827 828 829 830 831 832 832 833 833 834 834 835 835 836 836 836
693 696 695 699 714 724 725 728 734 743 751 749 740 731 723 715 704 699 702 698 693 693 690 687 685 685 687 687 686 689 691 692 692 693 695 696 697 699 702 708 712 717 722 726 731 735 738 743 746 749 752 755 760 763 765 768 771 774 776 779 781 782 785 788 791 796 798 800 802 805 807 810 811 813 815 817 819 821 823 824 825 826 827 828 829 830 831 831 831 832 832 833 833 834 835 835 835
702 710 712 706 704 709 715 715 716 726 739 743 743 738 720 697 687 689 692 690 688 689 688 686 682 678 678 678 680 684 686 687 687 687 689 690 692 694 698 704 708 713 718 722 726 730 734 738 741 744 748 752 755 758 761 764 766 769 772 774 776 778 782 786 789 794 796 797 799 801 803 806 808 809 811 814 816 818 820 822 823 824 825 827 828 829 829 830 830 830 831 832 832 833 833 833 834
695 706 710 707 707 713 725 727 714 711 723 727 732 737 717 683 674 680 683 684 683 681 683 682 678 674 672 673 676 678 681 682 682 683 684 686 688 691 695 701 705 709 713 717 722 726 729 733 736 740 744 747 750 753 756 759 762 765 767 769 772 776 780 783 786 790 793 794 794 796 799 801 803 806 808 811 813 815 817 819 820 822 822 824 826 827 828 828 829 829 829 830 830 831 831 832 832